Location: Newark
(27.5900°N, 83.4900°E)
Time: 06:48:51
(UTC+00:00)

LightSail 2 - Visible Passes

Search period start: 07 December 2019 00:00
Search period end: 17 December 2019 00:00
Orbit: 696 x 730 km, 24.0° (Epoch: 06 December)

Date Brightness Start Highest point End Pass type
(mag) Time Alt. Az. Time Alt. Az. Time Alt. Az.
07 Dec 5.7 12:15:01 10° W 12:20:05 56° S 12:25:06 10° ESE visible
07 Dec 6.7 14:00:42 10° W 14:04:05 30° SW 14:04:05 30° SW visible
08 Dec 6.1 13:02:30 10° W 13:07:22 42° SSW 13:09:52 25° SE visible
09 Dec 6.0 12:04:21 10° W 12:09:21 49° S 12:14:18 10° ESE visible
09 Dec 6.8 13:50:22 10° WSW 13:54:32 25° SSW 13:54:45 25° SSW visible
10 Dec 6.6 12:51:59 10° WSW 12:56:34 31° SSW 13:00:44 12° SE visible
11 Dec 6.5 11:53:44 10° W 11:58:33 38° SSW 12:03:20 10° SE visible
11 Dec 7.5 13:40:26 10° WSW 13:43:38 17° SSW 13:45:50 13° S visible
12 Dec 7.3 12:41:43 10° WSW 12:45:40 22° SSW 12:49:35 10° SSE visible
14 Dec 7.8 12:32:02 10° SW 12:34:43 14° SSW 12:37:22 10° S visible
